カタログに戻る

STARLINK-37389

運用中通信SSO
NORAD 68778·PAYLOAD·🇺🇸 United States

打ち上げ Apr 19, 2026 から Vandenberg Space Force Base

Loading…

次のパス (今後24時間)

TLE

最新Source: CelesTrak SupGP

元期: Sep 14, 2026, 22:56 UTC

1 68778C 26086N   26257.95604167  .00040711  00000+0  12639-2 0  2570
2 68778  97.2840 293.4582 0001585  92.4090 315.0716 15.33413699    12

AllMySatでSTARLINK-37389をリアルタイム追跡

Download on the App Store